Wind_Speed
18 19 18 18 19 18 18 17 17 18 18 19 19 19 18 18 18 19 20 21 22 22 23 24 25 23 20 19 18 17 17 18 18 21 25 22 17 16 15 14 14 15 15 14 13 13 14 12 11 8 7 10 11 11 8 8 9 7 4 4 4 4 5 5 4 6 7 7 12 20 24 17 12 17 24 25 25 27 21 19 22 17 23 28 28 33 31 31
19 19 19 19 19 19 19 18 18 18 18 19 19 19 19 19 19 19 20 21 22 22 23 24 25 22 20 19 18 17 17 18 19 23 20 13 12 14 18 18 16 16 16 16 15 14 14 12 9 7 9 13 12 10 9 7 6 6 4 4 6 6 7 9 10 10 11 11 14 20 23 21 17 21 26 20 18 24 20 18 25 26 26 28 31 33 30 33
19 19 19 19 19 19 19 19 19 18 18 18 19 20 20 20 19 20 20 21 21 22 23 24 25 22 20 18 18 17 16 18 21 19 9 6 13 17 20 22 20 18 17 16 14 14 14 12 10 9 11 13 15 15 11 8 6 7 6 3 5 9 7 12 18 15 16 19 17 17 21 21 20 24 24 20 19 21 19 21 26 27 31 31 32 35 35 35
19 19 19 19 19 20 20 20 19 19 19 19 19 20 20 21 20 20 20 21 22 22 22 23 24 22 19 19 18 17 15 17 16 9 3 6 14 18 23 25 23 20 17 15 15 15 15 15 14 12 11 10 15 16 11 12 9 6 7 4 5 14 10 14 23 20 22 25 19 17 17 16 21 28 29 26 17 11 19 31 35 34 36 35 35 38 37 35
18 19 19 20 19 20 20 20 20 19 19 19 20 20 20 21 21 21 20 21 22 22 23 23 24 22 19 19 19 17 12 9 4 1 4 7 11 18 23 25 24 21 18 16 16 16 16 16 15 11 8 7 11 10 12 18 13 7 4 9 13 17 11 18 27 23 27 27 21 18 12 14 24 28 31 30 15 11 23 34 41 42 41 40 41 39 37 37
18 19 19 20 20 20 20 20 21 20 20 20 20 20 21 21 21 22 21 22 22 23 23 22 23 21 19 18 20 17 7 3 3 1 2 3 9 17 22 24 24 21 19 17 18 18 16 16 13 8 5 5 6 6 13 17 12 6 2 10 15 19 13 20 27 26 30 27 19 15 14 21 24 18 25 29 20 22 30 36 41 42 42 41 42 40 39 39
19 19 19 20 20 20 20 20 20 21 20 20 20 20 21 21 22 22 22 22 22 23 23 23 23 21 19 18 19 14 8 12 8 3 2 1 7 16 21 22 22 21 20 20 21 20 16 15 13 8 3 4 5 6 14 15 7 5 5 10 17 23 17 20 26 27 30 25 20 21 20 20 17 12 17 22 24 30 34 37 40 40 40 39 39 39 39 39
19 19 19 20 20 20 20 20 20 21 21 20 21 20 21 22 22 23 22 22 23 23 23 23 22 20 18 17 17 13 13 13 5 4 2 2 5 14 21 21 21 21 23 23 24 20 15 16 16 10 3 3 6 9 14 12 5 5 7 13 18 20 21 27 30 29 28 24 26 26 20 16 18 18 18 23 30 34 36 37 39 38 37 37 37 37 38 37
19 20 20 20 20 20 21 21 21 21 21 21 21 20 21 22 23 24 23 23 23 23 23 23 23 21 18 16 14 12 12 6 2 6 4 4 3 10 19 22 21 22 23 24 23 19 16 18 16 6 4 8 10 11 13 7 3 5 11 15 15 18 28 36 30 30 29 25 28 23 15 18 25 23 17 25 35 35 37 37 37 37 35 35 35 35 35 35
20 20 20 21 21 21 21 21 21 21 22 21 21 21 21 22 23 24 24 24 23 23 23 23 23 21 18 15 9 5 5 1 4 6 5 4 4 7 15 20 22 23 24 25 24 22 21 19 13 3 8 11 9 13 17 9 8 11 19 17 17 23 31 35 28 28 29 26 31 22 11 16 23 19 11 23 36 36 36 35 35 36 34 34 34 33 33 33
20 20 20 21 21 21 21 22 22 22 22 22 22 22 21 22 23 24 25 25 24 24 23 23 24 21 18 14 8 6 4 2 4 7 6 5 4 6 12 18 22 24 24 25 26 24 22 20 14 6 7 5 7 15 20 12 18 19 23 15 16 23 26 31 26 26 24 18 30 27 12 11 14 13 13 26 36 36 36 34 34 33 32 33 33 33 32 31
20 20 21 21 21 21 22 22 22 23 23 22 22 22 22 22 23 25 25 26 26 25 24 24 22 20 18 16 16 12 7 6 4 6 8 8 6 6 9 16 21 23 24 25 26 23 19 18 14 10 8 6 6 8 16 10 17 23 22 11 11 15 16 23 21 24 21 13 29 30 11 7 7 11 22 31 34 34 35 33 31 31 31 32 32 33 32 29
21 21 21 21 21 21 22 22 23 23 24 23 23 22 23 23 24 25 25 26 27 26 26 24 21 20 16 16 20 13 8 11 8 8 11 11 10 9 9 15 19 21 22 24 24 20 16 15 14 15 17 11 7 8 19 17 10 19 13 8 10 10 9 16 18 22 21 17 32 25 5 3 5 14 27 32 34 33 31 29 29 29 31 32 31 32 30 29
21 21 21 22 21 21 22 22 23 24 24 24 24 23 23 24 25 25 26 27 27 27 25 21 17 16 13 17 18 11 7 13 14 14 13 12 12 11 11 15 18 19 21 23 21 17 15 14 14 17 19 16 16 17 17 10 8 10 5 5 7 6 5 11 16 19 15 18 30 19 3 6 6 16 28 32 34 32 28 27 28 29 31 32 30 29 28 28
20 21 21 22 22 22 21 22 23 23 24 25 24 23 23 24 25 26 26 26 28 27 21 15 13 11 12 19 17 7 7 11 17 17 14 13 14 12 12 16 20 19 19 21 18 15 14 14 14 14 18 20 20 14 7 3 1 3 5 4 3 5 4 6 14 19 14 14 21 16 5 6 8 17 28 32 33 30 26 25 27 29 32 31 29 29 27 26
20 21 21 21 22 22 22 22 22 23 24 25 25 24 23 24 26 25 25 26 24 18 11 6 6 6 7 13 12 6 9 10 15 16 12 12 14 12 10 15 20 17 17 18 14 13 14 14 15 15 18 16 9 4 3 4 2 1 4 4 4 5 4 4 9 18 22 14 11 11 7 6 7 17 28 31 31 29 26 25 26 29 31 31 30 30 28 27
21 21 21 21 21 22 22 21 22 23 23 24 25 23 22 24 25 24 22 19 13 8 5 4 4 7 10 11 10 7 12 12 13 13 10 9 13 12 9 15 18 15 16 15 13 16 17 15 12 11 13 7 3 3 3 3 3 0 2 4 5 6 6 6 5 14 24 16 8 9 10 8 8 17 26 29 31 29 26 25 27 29 30 30 31 30 28 28
22 22 21 21 21 21 21 21 22 23 22 23 23 23 22 22 22 19 16 10 6 7 4 3 2 4 9 11 8 5 8 11 13 13 10 8 12 13 11 14 16 15 15 13 13 17 17 12 7 4 5 3 3 5 3 4 5 5 4 4 4 5 7 8 7 11 18 14 9 10 10 10 10 15 22 27 30 28 26 26 28 30 31 31 32 30 29 29
23 23 22 22 21 21 20 20 21 22 23 21 20 21 19 19 18 13 12 12 10 8 5 7 7 5 11 17 16 12 12 12 13 15 15 13 15 16 13 14 16 17 12 6 7 11 11 6 3 3 5 4 3 6 7 8 7 9 8 7 6 7 7 8 8 12 15 13 11 12 12 12 13 14 17 25 30 28 27 26 27 30 31 31 32 30 30 30
24 24 24 23 22 21 19 19 20 21 22 19 18 18 15 16 12 8 19 26 23 20 20 22 21 21 25 31 31 24 20 20 18 19 20 18 19 20 19 18 17 15 9 4 5 6 8 5 4 6 8 8 8 8 8 6 6 7 7 7 7 8 7 8 10 12 13 12 10 14 15 16 17 15 17 26 28 25 26 24 25 30 31 31 31 31 32 31
24 24 24 24 23 22 19 19 19 19 19 18 18 17 12 13 9 10 24 31 31 28 27 28 27 28 32 35 34 27 22 22 21 21 21 21 22 18 18 19 11 7 7 6 6 5 7 6 7 9 11 9 9 8 7 4 6 7 7 7 7 7 7 8 9 11 11 9 7 13 16 16 18 16 17 25 23 20 27 25 25 31 32 32 33 33 34 31
25 24 24 25 24 22 20 19 18 18 17 16 17 15 12 12 11 16 20 22 31 32 25 28 29 31 36 35 33 28 22 19 20 21 22 24 24 16 15 16 7 4 6 5 6 5 4 6 10 12 9 7 8 7 6 5 5 8 6 6 6 5 4 4 5 10 10 7 7 13 15 14 16 16 17 23 22 22 32 32 31 36 34 33 34 34 35 32
25 24 25 26 25 24 21 19 18 17 16 15 15 14 12 12 13 20 18 13 25 31 25 26 28 31 34 33 30 24 19 17 16 21 26 25 23 20 16 11 6 6 6 5 7 5 4 6 10 12 8 6 8 8 6 5 5 6 5 5 5 5 6 4 5 10 7 6 12 13 11 9 11 12 14 24 29 26 32 35 35 39 38 37 38 37 38 35
26 25 25 26 26 25 21 20 18 15 14 13 13 12 11 13 13 20 20 8 13 23 27 26 26 30 34 32 27 18 17 21 19 20 27 27 23 21 16 12 8 6 7 7 8 6 6 8 9 9 9 8 9 9 6 5 5 5 7 6 4 6 10 9 6 7 3 5 13 12 6 4 9 11 10 17 24 22 27 31 30 36 40 39 38 39 40 39
26 25 25 26 26 25 22 20 15 11 13 12 10 9 10 13 12 16 15 5 6 15 22 19 19 27 31 28 24 20 16 19 21 23 28 30 26 17 12 14 10 6 8 8 6 6 8 12 9 8 10 10 8 9 8 7 5 5 7 9 8 9 12 10 7 7 5 3 10 12 7 4 6 11 11 11 13 15 21 25 25 31 35 35 36 38 40 40
25 25 25 25 26 26 24 18 11 13 15 10 8 9 10 9 8 11 8 2 4 8 9 7 11 15 20 22 23 23 14 13 22 26 28 31 29 20 10 9 7 7 9 5 4 4 6 11 8 7 10 11 9 9 10 7 4 6 7 10 11 10 11 13 11 8 5 5 11 13 9 4 4 8 12 11 11 13 16 18 22 29 32 33 36 38 39 40
25 25 24 25 25 26 24 18 16 17 14 9 9 10 8 5 6 9 4 2 4 4 2 6 8 7 15 22 24 17 5 9 18 25 33 31 29 25 12 5 5 6 8 5 4 3 6 10 9 8 10 9 9 8 9 7 5 7 7 9 10 8 13 16 14 10 6 4 8 7 4 5 5 9 10 10 12 13 14 14 18 27 32 34 37 39 41 41
25 24 24 24 23 23 24 23 21 16 10 9 11 9 6 4 4 4 3 2 4 3 1 5 8 5 11 19 24 16 5 10 11 18 35 32 27 23 10 7 8 6 8 7 5 4 6 9 9 10 10 7 7 9 9 7 6 9 7 8 8 7 13 16 14 11 5 6 5 5 3 5 4 5 5 8 11 13 16 16 17 24 32 35 37 40 42 43
24 24 24 24 22 20 22 25 22 14 8 10 11 8 4 2 1 3 4 1 4 3 2 4 6 6 9 11 18 18 12 14 10 16 32 31 28 22 8 10 11 7 10 8 5 5 6 11 13 11 9 7 8 10 9 8 7 9 7 6 4 3 8 12 11 8 5 5 7 8 4 4 3 4 4 7 9 13 16 16 17 25 33 36 37 40 42 43
24 23 24 24 23 20 21 23 18 10 8 11 11 6 2 3 4 4 1 2 4 5 3 3 3 7 10 5 8 13 11 12 12 18 25 25 30 24 11 13 12 5 7 7 7 8 7 14 15 10 8 10 11 12 10 10 10 8 6 4 3 3 4 6 3 4 5 3 7 13 13 7 2 5 5 8 13 17 16 14 15 22 30 36 37 39 41 42
25 23 22 24 23 22 23 21 11 7 10 12 11 6 3 2 3 4 4 3 4 7 4 2 3 5 9 6 5 10 8 7 9 12 13 14 20 17 8 9 8 3 3 4 7 9 9 12 9 7 14 14 10 11 10 9 8 6 2 2 3 4 3 3 4 3 4 5 6 13 17 10 5 6 6 12 18 19 17 16 17 20 28 36 36 37 41 43
25 23 22 22 23 24 25 20 13 12 14 11 10 7 2 2 1 3 4 5 4 5 2 1 3 3 8 8 6 9 7 6 6 7 8 7 8 9 7 6 5 4 4 4 4 7 9 10 7 8 17 16 9 7 8 6 5 6 2 5 3 3 1 1 1 2 4 6 6 11 14 9 7 7 11 19 20 16 17 22 26 27 31 35 36 38 41 43
25 24 23 21 23 26 24 19 16 15 11 8 7 5 2 3 3 7 5 2 3 4 5 6 5 4 5 8 7 9 8 6 6 5 8 9 7 8 9 8 6 6 4 4 3 4 6 8 10 9 10 14 13 8 7 6 4 6 5 5 5 3 1 3 3 2 2 4 6 7 9 6 5 6 12 20 22 23 26 29 34 35 36 38 40 42 42 43
26 25 26 23 23 25 22 18 17 14 10 7 4 1 3 3 5 7 7 8 9 8 8 8 10 10 6 7 7 9 8 7 8 6 6 8 7 7 9 9 8 6 3 4 4 5 6 7 9 9 6 10 14 11 10 7 5 6 5 6 5 5 4 4 4 3 3 4 5 3 3 4 4 5 11 19 25 31 31 27 29 35 38 41 41 40 40 42
27 26 26 26 25 21 17 17 16 13 12 10 4 2 4 5 4 5 6 8 8 9 10 11 10 9 7 6 7 9 10 8 9 7 5 7 8 7 8 9 10 7 4 4 3 4 7 7 7 9 9 10 11 11 10 9 5 5 4 6 4 6 5 2 4 5 4 2 3 3 3 5 5 5 6 11 17 20 21 21 25 31 35 36 35 37 39 42
29 26 25 25 24 19 15 16 16 16 17 13 5 2 6 6 4 4 3 4 4 5 7 9 7 5 5 4 5 9 11 8 8 8 4 6 9 9 9 8 10 11 7 5 4 2 5 6 6 7 8 10 12 10 10 9 6 3 3 5 5 6 7 3 3 2 3 2 4 2 2 4 2 5 5 3 6 9 13 17 23 29 32 33 34 38 40 41
29 27 25 19 17 14 15 18 17 20 21 14 5 5 6 5 5 6 2 0 3 4 4 5 4 3 5 4 4 8 10 7 7 7 4 5 7 10 11 8 10 13 11 9 5 2 5 5 8 7 7 12 16 13 9 9 9 5 5 7 4 2 4 4 1 2 4 1 4 3 3 4 1 3 4 5 7 9 12 15 18 23 29 32 35 40 43 45
30 29 24 17 16 12 14 20 19 24 21 9 6 7 4 5 7 8 4 4 7 7 4 4 2 2 5 6 6 5 7 7 6 6 5 4 5 10 12 9 11 14 15 15 7 4 5 3 7 8 8 9 11 10 7 7 7 7 5 6 5 4 2 1 3 2 1 2 3 4 5 3 3 4 3 3 9 11 12 14 14 17 24 30 35 40 45 46
28 25 19 17 16 8 13 20 23 25 15 4 6 6 3 6 9 12 10 7 6 5 5 4 3 3 6 7 9 7 5 8 8 6 6 5 5 11 14 10 10 15 16 15 9 4 4 2 5 7 6 7 6 5 6 6 4 3 4 3 3 4 5 3 4 5 4 3 3 4 5 4 5 5 5 9 12 13 14 13 12 16 26 32 35 39 44 45
22 15 12 18 16 2 16 22 22 18 8 3 6 4 4 6 9 13 14 9 5 5 5 4 4 6 8 10 12 9 6 7 7 6 6 8 6 8 15 13 9 14 19 16 10 6 4 4 5 8 5 6 6 5 8 8 5 4 4 4 3 1 3 3 2 3 5 4 3 3 4 5 5 4 7 10 10 11 14 14 13 19 29 34 37 40 43 46
18 8 5 10 9 10 18 18 13 7 2 3 3 3 5 7 8 10 14 14 12 11 12 9 8 9 8 11 12 8 6 8 8 7 4 8 8 5 12 16 10 11 15 13 10 8 4 5 6 6 6 5 6 8 11 12 9 8 6 6 6 4 4 3 3 2 3 5 5 5 4 6 5 4 7 9 7 8 13 14 13 19 29 34 37 40 43 45
14 4 2 8 9 11 11 5 4 4 2 4 5 6 8 9 10 10 13 15 14 12 13 11 10 10 9 10 12 10 8 8 7 7 4 8 11 7 13 24 21 15 13 10 11 11 7 4 4 6 7 7 8 11 13 13 11 9 7 7 7 5 5 5 4 4 2 2 2 4 2 5 6 4 4 8 9 11 17 19 16 20 30 36 36 38 41 44
14 11 8 2 3 10 8 2 3 3 2 6 8 11 14 11 10 11 11 12 11 8 9 9 9 11 10 11 13 10 9 9 8 7 5 7 12 14 21 31 28 16 11 8 9 10 8 4 4 4 5 6 8 9 9 10 9 7 5 5 6 6 6 6 5 5 4 3 2 4 1 5 6 4 1 8 12 13 18 23 23 23 29 34 35 36 39 42
19 20 13 4 5 5 7 2 3 4 4 7 8 11 16 14 12 13 10 8 8 7 7 8 10 10 10 10 11 9 8 8 7 7 5 3 9 18 26 34 31 16 9 10 10 9 7 5 5 4 3 5 5 6 6 6 5 4 4 5 7 7 8 5 2 3 2 3 5 6 2 6 5 4 3 4 12 12 14 23 28 27 28 31 33 35 38 41
16 14 12 12 12 1 6 3 2 3 4 6 8 9 11 12 14 18 16 13 13 11 8 9 11 11 11 12 13 13 10 7 5 3 1 1 3 9 14 21 23 17 16 21 19 14 8 5 6 7 6 5 5 5 6 5 4 3 4 7 9 9 9 6 3 4 3 3 5 6 4 6 5 4 5 4 10 11 11 19 27 29 31 33 34 36 39 40
8 4 8 14 13 5 3 5 6 4 3 5 7 7 8 9 11 17 18 14 17 17 12 12 13 11 10 12 14 12 7 5 6 6 2 1 2 3 3 2 6 12 21 28 24 13 4 4 7 10 9 8 8 9 8 7 7 6 6 9 9 9 9 6 5 5 6 5 4 5 7 6 5 5 7 7 9 11 10 14 20 26 31 35 36 37 38 39
3 2 4 8 9 8 8 9 11 8 6 6 3 5 9 10 10 13 14 11 15 17 12 10 8 5 6 10 13 10 4 6 8 9 5 3 3 4 1 4 3 7 15 20 23 11 3 5 9 11 13 14 11 10 9 9 11 10 9 9 9 8 8 8 6 6 6 7 5 8 9 12 11 11 11 11 10 10 9 13 21 26 31 35 37 38 38 37
2 4 6 6 5 4 6 9 11 10 10 9 4 4 10 13 11 10 9 10 15 15 8 4 4 3 5 10 12 8 4 7 6 6 5 3 3 4 4 4 2 9 13 8 17 9 5 6 9 11 13 14 12 10 9 11 12 11 10 10 11 11 10 9 8 7 9 8 7 9 13 16 14 12 13 14 13 14 16 22 29 32 33 35 37 37 38 37
3 4 7 9 6 6 11 16 16 11 9 9 5 5 9 12 12 11 8 7 10 8 2 2 1 1 4 9 9 4 1 3 2 3 3 5 5 3 3 3 3 7 11 4 7 6 5 6 9 12 11 11 12 11 9 10 11 12 14 13 11 12 11 9 7 9 12 10 8 12 15 14 13 14 16 16 16 18 22 27 29 30 32 34 34 35 36 36
5 4 9 12 9 10 14 16 11 7 7 8 4 4 9 11 12 12 9 6 7 5 2 3 5 6 7 8 4 2 2 1 3 4 3 5 6 4 2 1 2 6 6 4 3 4 8 6 7 11 9 9 11 10 7 8 9 12 15 12 7 6 6 3 2 5 7 4 4 13 15 11 9 10 10 10 12 14 16 20 24 26 30 33 32 33 34 34
4 3 8 10 6 6 8 9 7 5 4 3 3 5 9 12 14 13 8 5 4 4 5 8 9 7 5 6 7 6 7 7 7 9 8 6 6 6 5 2 0 4 5 4 3 3 6 5 3 7 6 5 7 6 7 6 5 5 4 3 3 4 2 2 2 3 4 3 4 7 9 9 7 4 6 7 10 13 14 17 21 22 25 29 30 30 30 29
5 2 5 6 3 4 5 5 6 5 3 3 7 9 10 14 16 11 5 4 8 10 10 9 6 4 3 4 7 9 13 15 17 18 17 16 14 13 12 8 4 2 3 3 2 2 3 4 4 6 5 4 4 4 8 6 5 2 3 2 3 6 7 6 3 1 2 6 7 5 7 7 2 2 5 7 8 10 12 16 19 18 19 22 22 21 19 18
Wind_Direction
339 340 340 340 341 341 341 341 342 341 341 340 339 339 339 338 337 335 334 335 333 331 331 333 334 330 329 326 316 308 303 296 291 283 275 268 261 249 231 212 209 217 217 222 226 232 240 241 239 234 243 265 278 275 271 262 232 195 162 152 176 196 195 176 168 167 139 125 119 128 136 135 139 131 126 132 134 134 135 133 132 129 137 144 148 148 146 147
337 338 338 339 339 339 339 339 339 339 339 339 337 337 337 337 336 335 333 333 332 332 331 333 335 331 329 329 320 312 306 302 294 284 282 281 260 236 218 205 200 208 213 218 221 230 242 242 236 244 277 284 282 275 281 275 214 192 161 162 195 193 188 167 156 158 145 133 131 136 139 137 135 132 133 134 130 128 120 119 123 123 133 140 145 151 152 151
335 336 336 337 337 337 337 336 337 336 336 337 336 336 336 336 335 334 333 332 331 330 329 332 335 330 327 331 325 317 312 311 300 287 292 259 230 213 204 199 197 203 210 215 218 230 239 246 250 266 288 285 276 270 267 270 260 241 203 186 212 171 161 160 153 154 147 141 138 140 140 137 133 133 135 133 129 130 130 134 132 132 141 145 149 154 155 155
333 334 335 335 335 335 335 334 334 333 334 334 334 334 334 334 334 333 332 331 330 329 329 331 334 330 325 329 327 321 322 319 299 285 316 254 224 204 198 194 195 200 204 209 216 226 235 247 253 268 289 284 275 270 256 254 256 246 204 194 172 147 144 158 152 144 139 139 137 133 131 130 128 128 130 129 126 134 144 147 146 146 148 149 151 154 158 160
332 332 333 332 333 333 332 332 331 331 331 330 332 331 332 333 331 332 331 330 330 328 327 329 332 330 322 325 327 323 330 332 289 248 339 271 224 201 195 191 194 198 200 205 213 222 233 244 251 271 277 259 273 268 253 248 239 264 203 156 150 143 146 158 149 135 131 132 126 122 119 123 124 128 137 137 139 160 156 153 151 150 152 154 155 157 159 160
331 330 330 330 331 330 330 330 329 329 328 328 329 329 329 330 329 330 330 330 329 327 327 328 331 328 322 323 325 324 325 291 248 249 343 264 213 196 191 190 192 194 197 203 210 221 233 239 248 261 238 234 269 250 261 258 233 255 135 129 136 136 146 153 141 130 129 125 119 122 119 121 119 129 148 145 147 156 155 154 151 152 154 155 156 158 161 162
329 328 328 328 328 327 328 327 327 326 326 325 325 326 327 327 327 327 328 330 328 328 327 326 328 327 322 320 323 324 283 269 270 266 316 150 189 188 187 189 190 191 196 202 209 219 230 236 239 243 244 271 270 248 274 280 247 215 135 108 121 135 147 143 130 125 127 123 121 120 113 114 114 132 151 142 143 149 151 153 152 153 154 154 156 159 163 165
326 326 325 325 325 325 324 324 324 324 323 323 323 324 324 324 325 324 325 327 327 328 327 327 326 325 323 320 325 319 284 283 277 212 217 112 171 183 185 189 190 193 197 200 210 221 228 233 238 244 275 278 274 276 282 290 272 213 142 120 127 134 127 120 117 116 115 114 116 112 103 102 109 123 133 133 140 146 150 152 151 153 155 157 159 162 165 167
324 324 323 323 323 322 322 322 321 321 321 320 321 321 322 322 321 322 322 323 326 326 326 327 323 321 321 318 326 318 292 297 175 188 174 140 160 182 188 192 193 196 200 205 213 222 225 231 232 238 327 311 304 293 288 295 233 189 141 129 127 116 110 113 116 115 114 115 115 107 101 106 111 112 116 132 141 148 150 151 153 155 158 161 164 168 171 173
323 322 321 321 320 320 320 319 319 319 318 318 318 318 320 320 318 318 318 320 324 323 325 326 321 319 315 314 326 316 289 278 172 181 167 171 178 192 199 197 197 200 203 209 215 218 221 224 217 250 319 311 315 299 295 273 197 154 130 125 117 112 112 117 119 120 120 123 123 117 115 117 117 115 119 142 144 148 150 151 156 158 162 166 169 172 173 176
321 320 320 319 319 318 317 318 317 316 316 316 316 316 317 317 316 315 315 318 320 321 322 321 321 313 307 308 282 247 275 274 185 180 182 188 201 225 213 205 205 206 208 211 216 219 222 226 226 280 309 301 305 300 296 239 183 146 126 117 109 114 119 123 126 128 124 127 128 121 114 110 110 119 140 149 148 151 151 152 158 161 166 170 172 175 175 175
320 319 318 317 317 316 316 316 315 314 313 313 314 314 315 315 313 312 313 315 316 318 319 318 318 308 304 296 267 265 292 266 206 186 202 204 232 265 234 218 216 212 214 216 218 221 227 235 241 264 261 275 310 311 310 267 169 139 127 117 108 114 124 131 137 137 127 130 129 117 99 97 98 130 143 148 151 152 151 155 161 163 168 171 174 177 179 180
319 318 317 316 315 314 314 313 313 312 310 310 312 312 314 314 312 311 311 313 314 314 314 315 311 303 300 282 274 294 292 243 209 191 206 213 231 253 239 227 226 220 221 225 225 226 233 241 242 255 259 277 297 276 298 294 158 135 127 119 117 117 139 146 145 137 127 140 137 121 100 147 127 142 145 149 151 150 151 157 161 163 168 171 174 177 180 180
317 317 317 315 314 313 312 312 311 309 308 308 308 310 312 312 310 310 311 312 312 310 311 311 304 300 287 272 285 309 272 229 212 202 199 213 227 236 233 225 225 224 225 230 234 236 237 242 249 267 273 271 272 274 289 284 154 134 115 100 116 131 176 169 150 134 127 153 144 122 122 173 157 150 149 152 152 151 154 160 162 163 167 170 173 177 177 178
317 316 315 314 314 313 312 312 310 308 306 305 305 309 311 311 310 310 312 311 309 307 306 304 294 293 282 278 287 281 240 224 213 205 193 213 225 227 235 224 219 219 224 231 238 242 238 248 259 266 272 268 266 274 301 301 198 122 125 124 126 144 190 186 153 140 136 157 142 115 124 169 162 160 156 155 156 157 158 163 165 166 170 172 174 179 181 183
318 316 314 314 313 313 314 313 312 308 304 303 304 307 310 311 310 311 313 311 310 309 303 293 277 284 282 286 290 238 221 218 204 202 201 222 222 221 238 223 216 214 222 231 234 244 247 256 264 256 259 266 256 244 345 336 303 58 126 156 160 152 175 181 166 153 143 149 150 128 139 167 167 167 162 160 161 161 161 164 165 167 172 173 175 179 184 186
318 318 315 314 313 313 314 315 315 310 304 304 304 308 312 311 311 313 316 315 322 330 303 257 257 283 266 267 288 248 219 210 195 194 209 234 219 216 228 214 211 210 219 232 235 247 254 251 252 254 253 245 157 119 19 320 239 234 93 137 158 155 165 171 182 165 148 148 168 143 140 165 172 167 164 164 164 163 164 165 166 168 172 175 176 179 185 186
320 319 317 316 314 314 315 316 317 313 307 305 307 313 313 312 315 316 318 322 341 359 333 237 219 305 272 259 268 251 227 216 206 204 209 225 215 209 213 210 210 210 220 237 239 240 246 243 226 246 259 219 107 103 151 238 200 169 148 129 147 160 179 182 174 172 158 147 148 140 142 160 163 164 165 165 165 165 169 168 166 170 174 177 179 181 185 186
321 320 319 317 315 315 316 317 317 315 311 307 310 313 312 323 330 331 337 330 312 321 311 258 247 266 281 277 271 273 280 267 248 233 215 202 207 214 216 213 212 212 217 231 239 227 218 234 244 244 259 227 168 153 193 219 188 177 173 152 158 170 196 195 174 176 160 140 150 153 150 158 161 170 169 167 166 167 173 171 168 173 177 180 183 185 187 189
321 321 319 318 316 316 317 317 317 316 314 311 315 316 324 343 345 344 338 321 300 292 287 280 270 262 271 278 278 281 285 288 278 245 220 198 202 214 213 210 209 212 212 189 228 226 195 217 247 222 239 226 201 197 202 216 217 205 177 163 171 172 198 200 181 184 155 135 166 161 150 161 167 174 175 170 169 169 174 174 170 175 179 181 184 186 189 193
321 320 319 318 316 316 317 318 317 314 314 313 313 318 339 354 342 331 328 315 304 297 283 279 275 267 272 276 278 281 280 287 282 247 219 200 204 210 204 203 199 209 220 201 222 231 186 210 233 222 233 230 220 213 197 210 243 232 199 181 188 180 199 206 179 177 153 126 170 160 148 166 172 176 177 171 172 176 179 177 175 178 181 183 185 187 190 192
321 319 319 318 315 316 317 318 315 312 312 306 303 315 338 345 335 333 325 301 299 300 284 279 276 268 272 273 272 273 267 270 274 247 212 198 211 210 189 193 190 201 220 202 216 236 202 222 234 229 236 238 245 239 211 221 236 235 217 170 196 200 182 228 196 170 157 126 162 162 154 172 180 177 177 175 179 184 184 183 180 180 180 183 185 187 188 187
320 319 319 316 314 315 316 317 314 310 307 298 304 322 332 327 327 335 329 283 289 297 283 271 264 260 266 268 265 263 249 243 257 242 210 197 209 203 183 186 189 195 209 197 198 209 219 234 232 232 242 244 256 258 234 238 241 237 226 174 199 197 162 223 216 172 164 137 159 164 157 173 182 180 184 183 183 184 187 187 184 183 183 185 188 187 186 185
319 319 318 315 313 312 315 316 313 309 302 300 317 325 318 314 319 335 333 292 280 290 282 270 255 252 255 255 255 248 233 231 239 234 212 199 198 195 190 186 179 195 215 206 195 196 226 243 232 226 237 236 246 258 242 231 242 228 216 200 189 190 192 206 187 155 109 115 151 145 130 184 189 187 195 188 184 183 186 186 185 185 187 187 187 187 187 187
318 318 318 316 312 311 314 315 312 307 304 307 318 306 306 314 315 334 337 305 272 285 286 274 247 246 244 245 246 237 233 229 234 233 211 200 194 185 190 192 180 202 217 208 199 200 236 248 235 217 231 236 238 252 240 218 237 245 220 202 191 200 205 195 162 135 89 121 165 143 136 227 220 195 194 187 186 185 183 185 186 186 187 185 184 186 188 190
317 316 317 316 313 312 312 313 310 310 314 317 308 295 307 317 319 338 347 323 289 276 279 241 220 234 227 229 229 223 232 235 238 232 204 198 199 185 184 196 182 200 204 205 213 199 231 244 239 219 228 235 233 247 243 212 215 258 229 200 201 202 189 175 162 153 144 187 188 165 155 198 231 215 204 186 182 189 188 189 189 187 187 186 185 187 189 190
316 314 315 314 314 316 314 310 307 314 321 312 298 300 312 325 331 341 5 358 294 244 215 186 200 203 197 210 208 197 217 224 226 215 193 194 199 190 192 192 178 200 189 182 219 202 207 225 238 234 231 236 232 243 243 203 196 252 229 196 204 185 166 169 166 177 183 150 177 185 130 130 194 219 206 181 177 190 198 195 194 192 191 190 189 190 191 192
314 313 312 311 313 315 311 305 304 318 321 296 303 313 321 334 327 351 64 358 282 228 210 194 204 206 193 201 196 190 201 190 193 196 189 192 195 192 196 186 179 200 193 186 218 232 208 211 224 230 234 237 228 237 233 199 203 243 227 193 196 170 169 175 172 187 176 105 167 217 100 116 219 240 180 172 179 191 202 200 198 196 193 193 193 192 193 194
312 312 311 308 307 307 303 296 300 318 311 297 314 317 327 27 70 61 88 281 284 288 286 199 198 203 192 183 187 200 206 182 176 183 185 190 196 197 202 198 192 199 205 197 205 231 223 214 215 218 232 236 232 242 230 200 215 243 233 197 180 123 165 177 173 176 138 118 190 207 169 147 248 256 167 170 190 198 205 204 201 198 195 195 194 194 194 195
310 310 310 306 303 301 294 287 293 314 306 304 312 309 356 81 102 71 123 244 303 294 275 192 196 189 184 170 185 207 207 187 184 178 180 188 195 198 204 208 204 193 211 212 207 224 236 228 223 213 226 233 231 243 231 205 214 245 259 236 264 14 115 156 150 125 135 188 210 199 194 178 202 243 191 183 201 198 196 199 203 199 196 196 196 194 194 195
309 310 309 303 301 297 288 282 289 307 302 308 311 314 9 48 88 108 209 288 320 269 259 216 221 175 175 177 182 201 203 198 189 171 176 187 190 195 193 199 203 180 211 226 220 235 242 238 234 214 223 227 229 243 240 218 208 226 256 181 235 305 59 80 15 69 170 240 236 198 194 186 203 240 211 209 213 200 187 191 198 197 196 197 195 194 194 195
309 308 304 299 295 288 280 281 289 290 295 308 307 308 6 73 45 196 225 342 333 238 262 247 223 174 188 191 184 196 191 193 196 166 170 176 181 197 192 186 183 180 215 219 226 244 238 235 240 229 225 218 216 240 244 241 213 206 189 104 146 263 355 94 251 195 200 246 245 191 180 187 220 225 204 209 216 206 192 192 194 193 192 193 194 194 195 195
310 308 302 294 286 280 277 281 280 275 281 288 289 306 83 128 224 219 215 299 259 249 352 345 330 334 217 196 190 195 188 197 203 175 175 177 177 196 204 203 170 153 194 200 205 240 244 243 231 229 229 212 209 220 228 240 218 193 187 148 154 165 166 227 231 213 208 253 258 195 169 194 251 248 208 204 210 208 201 196 194 191 187 189 194 195 195 195
311 310 303 293 283 278 277 277 268 258 254 244 248 57 129 191 224 207 205 224 245 279 319 327 325 318 266 221 209 189 181 208 207 176 166 175 182 194 207 214 190 151 147 183 195 200 220 245 223 214 218 203 209 211 201 200 203 204 174 147 161 157 164 214 205 188 200 238 268 235 175 192 208 238 212 199 206 208 203 194 187 188 188 189 193 194 193 195
312 311 304 296 287 279 274 265 250 237 221 198 164 114 181 215 226 202 216 227 248 284 301 312 313 303 278 248 232 196 182 202 206 189 171 175 189 194 196 211 205 178 151 187 217 196 211 241 233 218 214 202 209 207 184 171 197 227 146 119 172 176 158 189 197 187 173 201 259 222 207 209 202 258 244 198 204 203 191 176 170 179 186 186 189 193 194 196
314 312 304 297 291 283 264 248 233 213 196 174 147 201 211 221 215 191 209 210 228 279 309 322 318 299 289 266 240 212 195 197 200 200 197 182 191 196 195 205 202 189 176 189 223 193 201 249 258 224 219 216 210 189 171 172 185 217 170 169 210 174 140 133 243 271 93 138 265 240 254 293 294 303 324 123 164 173 168 169 169 174 178 180 187 192 195 198
321 318 311 311 313 293 241 224 218 199 183 166 170 218 220 235 225 214 224 12 318 331 346 332 329 319 299 287 254 213 195 195 200 198 201 190 193 195 196 205 200 194 188 187 218 222 186 258 271 225 221 231 217 195 183 180 157 145 205 209 201 147 114 109 174 328 56 153 277 291 263 284 264 274 325 78 142 172 173 176 175 170 171 177 186 191 196 201
327 322 319 328 337 310 222 204 200 186 171 164 220 232 229 239 230 231 259 336 326 325 326 296 296 321 300 302 298 247 193 192 195 190 194 197 205 195 190 199 204 202 194 186 204 250 192 254 282 237 218 226 215 200 208 209 166 149 184 192 162 159 191 131 162 176 114 195 275 302 280 250 200 234 264 174 180 184 180 179 172 166 172 179 184 190 196 201
329 323 324 329 329 307 196 186 182 174 160 161 223 226 251 257 255 258 274 310 308 292 286 271 248 276 291 291 296 293 229 202 193 186 193 194 211 201 191 192 201 206 200 185 189 230 195 200 287 268 228 198 195 196 207 230 225 157 144 169 178 170 176 182 168 161 166 191 225 281 291 268 226 217 211 208 200 184 178 180 175 175 181 183 184 189 196 201
334 326 331 334 329 250 167 165 164 163 161 201 209 226 282 281 277 271 271 274 257 244 260 265 259 278 287 281 284 288 266 239 213 196 196 189 195 204 197 194 191 202 206 197 191 201 185 183 248 287 270 192 196 208 194 195 200 172 149 180 215 199 141 171 199 149 145 157 184 219 258 268 250 211 199 207 199 180 176 175 180 186 186 186 186 188 195 200
345 333 349 13 37 128 149 151 153 164 208 236 222 255 274 277 282 281 276 265 246 239 245 250 254 262 271 275 281 281 276 273 236 211 205 189 184 194 205 202 191 191 203 208 201 194 178 175 209 261 272 227 225 220 197 187 181 171 167 185 192 167 124 155 244 262 138 151 173 183 222 262 260 227 205 189 165 170 180 176 184 189 187 189 190 190 195 199
352 326 151 92 104 150 161 158 187 187 201 240 246 251 262 273 273 277 278 266 256 245 239 243 246 248 257 264 270 270 265 269 244 220 215 196 190 184 200 205 204 190 186 207 214 198 178 148 179 232 252 241 236 226 203 186 172 166 178 189 181 156 130 146 200 228 199 176 151 126 157 262 269 256 201 158 147 173 182 177 178 184 187 191 193 193 196 199
338 303 258 193 196 207 205 293 269 203 226 248 248 252 256 261 265 271 272 259 257 253 240 247 249 246 253 254 256 262 258 258 253 231 218 206 203 196 192 199 206 198 176 196 213 194 180 163 171 237 280 270 258 249 220 187 161 159 183 178 169 173 164 157 173 182 182 204 149 99 114 261 276 295 178 140 144 164 174 172 172 178 186 191 193 194 196 200
327 307 283 320 5 214 201 248 250 232 257 248 248 252 248 248 252 257 258 248 248 251 248 254 254 250 260 267 272 281 279 270 259 239 220 198 213 212 199 196 200 195 178 196 193 175 183 182 162 179 263 273 279 275 243 216 184 174 178 175 181 178 162 151 128 124 166 213 160 126 179 248 271 326 324 151 140 144 161 167 170 175 181 186 190 193 196 200
332 315 299 329 353 297 207 250 271 259 270 269 274 268 257 258 255 249 249 248 247 249 252 257 261 266 275 288 292 287 281 275 274 273 237 131 249 235 211 204 205 198 194 196 181 165 177 181 160 172 200 211 212 220 219 213 215 215 172 174 192 187 170 161 123 133 196 215 144 136 186 247 280 311 283 214 142 136 153 161 169 176 179 184 189 192 196 200
342 325 315 327 339 350 299 336 11 7 338 333 315 295 287 287 277 268 263 252 243 244 248 254 265 280 286 289 285 275 276 298 314 327 317 215 293 254 200 219 233 226 219 201 178 155 157 184 171 175 192 199 200 214 211 175 178 208 190 179 196 197 173 140 111 155 189 170 173 204 181 183 233 227 220 209 158 149 158 158 164 172 175 182 188 191 195 200
328 315 352 338 331 345 347 1 26 18 323 321 319 290 296 296 293 285 277 268 260 253 244 237 244 270 284 288 285 279 314 350 335 331 309 252 265 250 232 56 44 290 264 214 182 155 123 191 184 177 195 209 208 215 213 180 181 198 193 189 202 195 156 134 151 185 161 143 211 243 181 165 199 209 200 198 175 161 167 165 165 167 171 180 186 190 195 199
306 318 357 357 325 339 349 336 340 330 310 310 293 266 293 296 293 287 275 276 275 265 247 212 199 205 249 276 281 280 335 7 350 330 312 298 305 296 333 14 31 349 337 236 194 167 131 193 194 180 198 215 213 215 205 185 190 195 190 199 212 205 175 162 181 175 151 160 212 217 182 176 191 199 197 194 183 175 174 168 165 166 171 179 183 187 192 197
330 315 336 349 333 300 298 299 303 304 304 310 290 266 296 299 298 300 294 287 282 269 219 165 221 358 327 302 281 252 37 23 321 303 327 332 320 310 0 341 307 358 1 297 215 180 163 204 197 183 200 216 211 211 194 177 190 197 197 206 216 212 196 184 187 175 170 189 196 176 181 192 194 194 201 199 187 176 170 163 162 166 173 179 183 186 191 196
2 347 327 331 321 294 290 292 298 301 296 298 281 284 308 306 304 310 304 288 290 297 1 349 336 357 346 325 319 82 44 319 251 271 318 338 329 320 334 313 314 345 343 317 287 217 208 222 194 176 189 208 205 199 171 162 181 190 198 206 204 207 212 199 183 168 171 212 186 163 178 208 215 197 191 184 168 159 159 162 166 169 172 175 181 187 191 196
358 355 332 324 302 293 299 296 303 300 283 295 305 311 319 311 309 313 299 274 310 354 360 345 346 358 352 2 26 13 338 320 293 286 290 291 287 282 278 255 314 339 322 317 327 260 221 220 169 143 155 202 207 165 129 128 131 144 193 214 136 130 130 82 81 135 147 126 93 133 177 218 237 199 144 139 151 153 157 164 168 171 173 176 181 187 193 199
351 340 359 350 297 291 317 312 307 294 282 342 332 316 307 302 306 315 311 320 348 355 348 338 346 6 25 34 10 332 317 313 302 293 290 283 278 278 278 276 275 284 290 298 318 292 215 185 147 128 143 228 251 135 113 101 93 67 291 264 117 113 113 101 77 57 133 131 121 144 206 218 218 121 130 141 159 160 156 155 155 157 163 169 175 179 184 191
Height
1537 1536 1534 1533 1532 1530 1529 1528 1526 1525 1523 1521 1520 1519 1517 1516 1514 1513 1511 1509 1508 1506 1504 1503 1502 1500 1499 1498 1496 1495 1494 1493 1492 1490 1487 1486 1489 1491 1493 1494 1495 1496 1497 1497 1497 1497 1497 1497 1498 1499 1499 1498 1498 1496 1496 1497 1498 1501 1506 1516 1522 1521 1519 1513 1513 1513 1510 1511 1510 1510 1512 1515 1520 1522 1523 1527 1530 1531 1535 1539 1539 1540 1541 1542 1545 1547 1550 1552
1537 1535 1534 1532 1531 1530 1528 1527 1525 1524 1522 1521 1519 1518 1516 1515 1513 1512 1510 1508 1507 1505 1503 1502 1500 1499 1498 1496 1495 1494 1492 1491 1490 1487 1484 1484 1486 1488 1489 1492 1493 1494 1495 1496 1496 1496 1496 1497 1498 1499 1499 1498 1497 1496 1496 1496 1497 1499 1504 1513 1516 1513 1509 1503 1504 1505 1504 1510 1510 1510 1512 1513 1517 1520 1524 1527 1532 1533 1535 1540 1541 1542 1544 1546 1547 1549 1551 1552
1536 1535 1533 1532 1530 1529 1528 1526 1524 1523 1521 1520 1518 1517 1515 1514 1513 1511 1509 1508 1506 1504 1502 1500 1499 1497 1496 1495 1494 1493 1491 1489 1487 1484 1482 1482 1482 1483 1486 1489 1491 1493 1494 1494 1495 1495 1495 1495 1497 1498 1499 1498 1496 1496 1495 1495 1495 1494 1501 1511 1507 1500 1501 1500 1500 1501 1502 1506 1507 1510 1511 1512 1516 1519 1523 1526 1530 1532 1533 1537 1539 1541 1543 1546 1548 1549 1551 1553
1535 1534 1532 1531 1530 1528 1527 1525 1524 1522 1521 1519 1517 1516 1514 1513 1511 1510 1508 1507 1505 1503 1501 1499 1498 1496 1495 1494 1493 1492 1490 1488 1483 1481 1481 1480 1480 1481 1483 1486 1488 1491 1492 1493 1493 1494 1494 1494 1496 1497 1498 1497 1494 1495 1494 1493 1495 1492 1495 1502 1496 1493 1499 1500 1499 1499 1500 1503 1506 1509 1511 1514 1516 1518 1522 1525 1533 1536 1532 1532 1533 1537 1540 1543 1547 1549 1550 1552
1534 1533 1532 1530 1529 1527 1526 1524 1523 1521 1520 1518 1517 1515 1513 1512 1510 1509 1507 1506 1504 1502 1500 1498 1496 1495 1494 1493 1493 1491 1492 1491 1482 1478 1480 1478 1478 1479 1481 1484 1487 1489 1491 1492 1492 1492 1493 1493 1495 1497 1498 1496 1493 1495 1491 1489 1492 1492 1490 1489 1488 1490 1497 1498 1496 1498 1499 1502 1506 1508 1512 1515 1516 1519 1522 1522 1529 1533 1531 1531 1531 1533 1537 1539 1543 1547 1550 1552
1533 1532 1531 1529 1528 1526 1525 1523 1522 1520 1519 1517 1516 1514 1512 1511 1509 1508 1506 1505 1503 1501 1499 1497 1496 1494 1493 1492 1492 1490 1492 1491 1481 1478 1479 1477 1477 1478 1481 1483 1485 1488 1490 1490 1490 1490 1492 1492 1494 1495 1496 1494 1494 1494 1490 1488 1491 1494 1491 1486 1487 1490 1494 1495 1495 1498 1499 1502 1506 1509 1512 1513 1516 1521 1522 1520 1523 1528 1529 1532 1533 1535 1537 1539 1541 1545 1548 1550
1532 1531 1530 1528 1527 1525 1524 1522 1521 1519 1518 1516 1515 1513 1511 1510 1508 1506 1505 1504 1502 1500 1498 1496 1495 1493 1492 1491 1490 1489 1490 1485 1478 1479 1479 1477 1477 1477 1480 1483 1484 1487 1487 1488 1488 1488 1490 1491 1491 1492 1495 1495 1494 1492 1489 1488 1489 1494 1493 1487 1489 1490 1491 1494 1496 1499 1500 1503 1507 1509 1512 1513 1516 1521 1523 1523 1524 1527 1531 1533 1535 1537 1539 1541 1543 1545 1547 1550
1531 1530 1528 1527 1526 1524 1523 1521 1520 1518 1516 1515 1513 1512 1510 1509 1507 1505 1503 1503 1501 1499 1498 1496 1494 1492 1491 1490 1489 1488 1486 1481 1477 1479 1478 1477 1477 1477 1480 1482 1483 1485 1485 1486 1486 1487 1489 1489 1489 1491 1495 1494 1493 1491 1488 1489 1489 1491 1491 1485 1487 1490 1491 1493 1497 1500 1502 1505 1507 1509 1513 1515 1517 1518 1521 1524 1526 1529 1532 1535 1536 1539 1541 1542 1544 1545 1547 1549
1530 1529 1527 1526 1525 1523 1521 1520 1518 1517 1515 1513 1512 1510 1509 1507 1506 1504 1502 1501 1500 1498 1496 1495 1493 1491 1490 1489 1489 1487 1481 1477 1477 1478 1478 1478 1478 1478 1480 1481 1482 1484 1484 1485 1485 1487 1488 1487 1489 1493 1495 1492 1491 1490 1488 1494 1494 1487 1485 1483 1485 1490 1491 1494 1498 1501 1502 1505 1507 1510 1515 1518 1518 1519 1525 1527 1527 1530 1532 1536 1538 1539 1542 1543 1544 1546 1548 1549
1529 1527 1526 1525 1523 1522 1520 1519 1517 1515 1514 1512 1510 1509 1508 1506 1504 1503 1501 1499 1498 1497 1495 1494 1492 1490 1489 1488 1489 1488 1479 1476 1477 1477 1478 1478 1478 1479 1480 1480 1481 1482 1483 1483 1483 1484 1485 1486 1490 1492 1494 1492 1490 1489 1487 1493 1491 1482 1482 1482 1485 1490 1492 1495 1500 1502 1503 1506 1507 1511 1517 1519 1518 1521 1531 1532 1528 1531 1534 1536 1539 1540 1542 1544 1545 1547 1548 1549
1527 1526 1524 1523 1522 1520 1519 1517 1516 1514 1512 1511 1509 1507 1506 1504 1503 1501 1499 1498 1496 1495 1494 1492 1491 1489 1488 1487 1488 1485 1477 1476 1476 1476 1478 1478 1478 1479 1480 1480 1480 1481 1482 1482 1481 1483 1485 1487 1491 1493 1494 1492 1490 1489 1484 1484 1483 1479 1480 1484 1488 1491 1494 1496 1500 1503 1504 1508 1508 1509 1516 1519 1520 1523 1528 1531 1530 1532 1534 1537 1539 1541 1543 1544 1545 1547 1548 1549
1525 1524 1523 1521 1520 1519 1517 1516 1514 1513 1511 1509 1508 1506 1504 1503 1501 1499 1497 1496 1494 1493 1492 1491 1489 1488 1486 1485 1483 1479 1476 1476 1475 1475 1476 1476 1478 1479 1479 1480 1480 1481 1481 1481 1481 1483 1486 1488 1491 1494 1493 1491 1491 1491 1485 1481 1480 1478 1478 1489 1495 1494 1498 1498 1498 1501 1502 1509 1508 1508 1523 1527 1524 1526 1527 1529 1531 1532 1534 1537 1540 1541 1543 1544 1545 1546 1547 1548
1523 1522 1521 1520 1518 1517 1516 1514 1513 1511 1509 1508 1506 1504 1503 1501 1499 1497 1495 1494 1492 1491 1490 1489 1487 1486 1485 1481 1475 1474 1475 1475 1474 1474 1474 1475 1477 1477 1478 1478 1479 1481 1481 1480 1481 1484 1487 1489 1491 1492 1491 1491 1491 1491 1487 1481 1481 1480 1479 1489 1499 1505 1507 1499 1496 1499 1499 1508 1505 1507 1534 1541 1529 1527 1527 1529 1531 1532 1535 1536 1539 1541 1542 1543 1544 1546 1546 1548
1522 1520 1519 1518 1516 1515 1514 1512 1511 1509 1507 1506 1504 1503 1501 1499 1497 1495 1493 1492 1490 1489 1488 1487 1485 1484 1484 1477 1471 1472 1473 1472 1472 1472 1473 1474 1475 1475 1476 1476 1478 1480 1480 1480 1482 1485 1487 1489 1491 1491 1491 1491 1489 1489 1487 1483 1481 1483 1486 1491 1500 1513 1513 1499 1494 1498 1503 1509 1502 1506 1536 1542 1530 1527 1527 1528 1530 1531 1534 1535 1537 1539 1540 1542 1543 1545 1546 1547
1521 1519 1517 1516 1514 1513 1512 1511 1509 1507 1506 1504 1502 1501 1500 1498 1495 1493 1492 1490 1488 1486 1485 1485 1484 1483 1482 1474 1469 1471 1470 1470 1470 1470 1473 1474 1474 1474 1474 1475 1476 1478 1480 1480 1482 1484 1486 1488 1491 1490 1489 1487 1488 1490 1490 1489 1484 1483 1495 1505 1505 1510 1511 1501 1493 1494 1502 1510 1503 1509 1535 1539 1529 1527 1525 1527 1529 1529 1533 1535 1536 1538 1539 1541 1542 1544 1546 1546
1519 1518 1516 1514 1513 1511 1510 1509 1507 1506 1504 1502 1500 1499 1498 1496 1493 1492 1490 1487 1485 1484 1483 1483 1482 1483 1481 1473 1468 1469 1469 1469 1470 1471 1473 1472 1472 1473 1473 1474 1475 1478 1479 1480 1481 1483 1485 1487 1488 1488 1486 1486 1489 1492 1495 1498 1495 1488 1497 1509 1508 1508 1511 1508 1498 1491 1495 1506 1506 1510 1528 1535 1528 1524 1524 1525 1527 1528 1531 1533 1535 1537 1538 1539 1541 1542 1544 1546
1518 1516 1515 1513 1511 1510 1508 1507 1505 1503 1502 1500 1498 1497 1496 1494 1491 1490 1487 1485 1484 1483 1483 1482 1481 1481 1477 1469 1467 1468 1468 1470 1470 1471 1471 1471 1472 1472 1473 1474 1474 1478 1478 1479 1482 1482 1484 1485 1487 1487 1484 1485 1487 1491 1503 1511 1507 1498 1498 1504 1505 1505 1510 1511 1505 1494 1491 1501 1509 1510 1519 1527 1523 1520 1523 1523 1524 1527 1529 1531 1533 1535 1537 1538 1540 1541 1542 1544
1516 1515 1513 1511 1510 1508 1507 1506 1504 1501 1500 1499 1497 1495 1494 1492 1490 1488 1486 1485 1484 1484 1483 1481 1482 1483 1474 1466 1467 1468 1468 1470 1470 1470 1471 1471 1471 1472 1473 1473 1473 1477 1478 1479 1480 1480 1483 1483 1484 1487 1485 1486 1487 1492 1508 1511 1505 1502 1501 1504 1506 1504 1506 1508 1504 1496 1493 1501 1510 1514 1519 1523 1520 1518 1520 1521 1523 1525 1527 1529 1531 1533 1535 1537 1538 1539 1541 1542
1515 1513 1511 1510 1508 1507 1506 1504 1502 1500 1498 1497 1496 1494 1492 1491 1488 1486 1486 1485 1484 1484 1483 1481 1480 1482 1475 1466 1467 1468 1468 1470 1470 1470 1470 1469 1471 1472 1472 1473 1474 1476 1477 1479 1479 1477 1480 1482 1485 1491 1490 1489 1490 1491 1497 1496 1493 1494 1493 1498 1503 1504 1504 1500 1496 1490 1490 1503 1510 1513 1518 1520 1520 1519 1517 1519 1521 1523 1526 1527 1529 1531 1533 1535 1536 1537 1539 1540
1514 1512 1510 1508 1507 1505 1504 1503 1501 1499 1497 1495 1495 1493 1491 1491 1489 1486 1485 1484 1482 1481 1480 1478 1476 1475 1471 1465 1464 1468 1468 1468 1468 1467 1468 1469 1470 1471 1471 1473 1473 1474 1476 1478 1479 1475 1477 1486 1491 1492 1488 1485 1485 1484 1485 1485 1487 1489 1489 1493 1496 1500 1502 1495 1491 1486 1484 1501 1510 1507 1511 1516 1517 1516 1513 1515 1518 1520 1523 1525 1526 1529 1530 1532 1533 1534 1536 1538
1512 1511 1508 1507 1505 1504 1503 1501 1499 1498 1496 1495 1494 1493 1493 1494 1494 1491 1486 1479 1475 1476 1475 1472 1473 1470 1465 1462 1461 1465 1467 1466 1464 1464 1465 1467 1468 1470 1470 1471 1473 1476 1475 1474 1477 1474 1477 1488 1489 1483 1479 1477 1478 1479 1482 1485 1487 1489 1491 1493 1495 1497 1498 1490 1487 1486 1482 1497 1510 1505 1509 1515 1512 1512 1511 1511 1515 1516 1517 1520 1522 1524 1526 1528 1529 1531 1533 1535
1511 1509 1507 1505 1503 1502 1501 1500 1498 1497 1495 1494 1493 1493 1494 1496 1496 1495 1492 1480 1468 1469 1471 1468 1468 1465 1460 1460 1458 1462 1467 1465 1462 1461 1462 1465 1466 1467 1468 1468 1473 1476 1474 1473 1478 1480 1484 1487 1481 1474 1472 1473 1475 1475 1480 1485 1487 1491 1491 1494 1498 1495 1494 1491 1486 1485 1483 1495 1510 1507 1510 1515 1509 1507 1508 1507 1509 1511 1512 1513 1516 1518 1521 1524 1525 1527 1530 1533
1510 1507 1506 1503 1501 1501 1499 1498 1497 1495 1494 1493 1492 1493 1493 1493 1493 1492 1492 1484 1468 1462 1465 1463 1462 1460 1456 1456 1455 1459 1463 1462 1460 1459 1459 1462 1462 1464 1466 1467 1472 1474 1474 1475 1480 1486 1489 1482 1473 1469 1470 1474 1477 1475 1479 1485 1487 1490 1491 1496 1499 1493 1495 1499 1491 1487 1485 1490 1503 1507 1510 1514 1511 1509 1507 1504 1505 1507 1510 1511 1512 1514 1516 1518 1520 1522 1525 1528
1507 1506 1504 1501 1500 1499 1497 1497 1495 1493 1493 1492 1492 1492 1491 1491 1491 1489 1486 1483 1470 1456 1455 1456 1456 1455 1451 1450 1453 1456 1457 1457 1457 1455 1456 1459 1459 1462 1464 1464 1470 1474 1473 1473 1477 1483 1483 1474 1466 1467 1470 1473 1478 1478 1480 1488 1491 1490 1488 1491 1494 1490 1491 1493 1489 1488 1490 1493 1497 1505 1520 1521 1514 1515 1511 1506 1506 1507 1509 1511 1512 1512 1512 1514 1517 1519 1521 1523
1505 1504 1502 1499 1498 1496 1496 1496 1493 1493 1492 1491 1492 1490 1490 1490 1489 1489 1485 1484 1475 1455 1448 1450 1448 1446 1444 1446 1450 1451 1453 1452 1452 1452 1454 1455 1457 1460 1462 1462 1468 1473 1473 1472 1475 1481 1477 1467 1465 1469 1470 1472 1478 1480 1479 1485 1492 1490 1484 1481 1482 1484 1485 1487 1489 1492 1504 1512 1501 1503 1532 1535 1516 1515 1514 1508 1509 1509 1508 1509 1510 1511 1512 1513 1515 1516 1518 1520
1504 1503 1500 1499 1496 1494 1495 1493 1492 1493 1490 1491 1490 1488 1490 1488 1488 1488 1484 1488 1482 1456 1446 1446 1442 1439 1438 1441 1444 1448 1455 1451 1446 1449 1451 1453 1455 1457 1462 1462 1463 1468 1469 1469 1473 1475 1471 1464 1464 1468 1470 1471 1477 1479 1474 1477 1489 1492 1479 1471 1472 1475 1481 1486 1489 1496 1509 1514 1498 1493 1520 1533 1522 1516 1512 1508 1510 1510 1508 1507 1507 1509 1510 1511 1512 1514 1516 1517
1502 1500 1499 1498 1495 1493 1493 1491 1492 1491 1489 1490 1488 1487 1489 1485 1488 1485 1485 1501 1488 1452 1444 1444 1439 1437 1433 1436 1440 1447 1457 1450 1443 1446 1446 1451 1453 1454 1461 1463 1463 1465 1462 1467 1477 1472 1464 1465 1466 1467 1469 1472 1476 1478 1469 1470 1486 1487 1470 1464 1469 1472 1478 1481 1485 1494 1498 1497 1498 1495 1503 1522 1526 1516 1507 1507 1512 1512 1509 1507 1506 1505 1506 1508 1509 1510 1512 1514
1500 1498 1497 1496 1495 1494 1491 1490 1490 1489 1489 1488 1485 1487 1486 1484 1488 1482 1494 1514 1483 1442 1441 1440 1435 1436 1433 1435 1438 1442 1447 1443 1443 1446 1443 1448 1451 1451 1458 1460 1461 1463 1457 1466 1480 1470 1460 1465 1467 1467 1471 1473 1472 1469 1463 1465 1478 1474 1460 1460 1465 1468 1473 1475 1480 1489 1489 1495 1511 1506 1500 1519 1527 1513 1505 1508 1512 1514 1510 1505 1502 1501 1502 1504 1505 1506 1508 1510
1498 1496 1495 1493 1493 1493 1491 1489 1488 1488 1488 1486 1485 1487 1483 1485 1485 1482 1503 1511 1469 1438 1441 1437 1434 1436 1433 1435 1438 1438 1439 1438 1442 1443 1441 1446 1448 1449 1455 1455 1456 1460 1457 1461 1472 1467 1458 1459 1460 1462 1469 1469 1464 1459 1456 1463 1469 1460 1453 1458 1461 1464 1469 1471 1479 1487 1490 1502 1515 1508 1500 1516 1525 1513 1508 1512 1513 1512 1505 1499 1497 1496 1498 1500 1501 1503 1505 1507
1495 1494 1493 1491 1490 1490 1489 1487 1487 1487 1487 1485 1486 1485 1483 1485 1484 1495 1518 1502 1462 1445 1440 1436 1437 1435 1433 1438 1440 1439 1438 1437 1437 1438 1441 1443 1445 1447 1451 1452 1453 1458 1460 1460 1464 1463 1455 1453 1453 1456 1460 1458 1455 1454 1451 1455 1458 1452 1454 1461 1464 1468 1471 1475 1481 1486 1497 1507 1507 1500 1495 1505 1518 1514 1507 1505 1498 1494 1495 1496 1495 1494 1496 1497 1498 1500 1502 1505
1492 1492 1491 1488 1487 1487 1485 1485 1486 1486 1485 1485 1485 1483 1484 1484 1486 1507 1514 1483 1458 1449 1438 1437 1438 1433 1436 1440 1442 1440 1438 1437 1435 1437 1442 1442 1445 1448 1450 1455 1456 1460 1466 1465 1464 1462 1457 1457 1454 1451 1451 1450 1452 1454 1450 1448 1450 1453 1460 1466 1473 1479 1479 1485 1490 1490 1505 1510 1497 1490 1489 1498 1513 1509 1498 1491 1480 1477 1484 1488 1489 1489 1491 1492 1495 1498 1499 1502
1489 1489 1488 1487 1485 1483 1481 1483 1484 1485 1484 1484 1485 1483 1484 1490 1497 1503 1491 1471 1463 1451 1438 1440 1438 1434 1437 1437 1440 1439 1437 1439 1435 1436 1442 1443 1447 1449 1450 1456 1458 1466 1475 1472 1469 1467 1461 1458 1453 1449 1447 1446 1454 1460 1457 1453 1452 1458 1465 1471 1484 1493 1494 1501 1504 1501 1506 1503 1487 1483 1488 1498 1502 1491 1482 1480 1473 1472 1475 1475 1476 1479 1484 1489 1492 1495 1496 1499
1486 1485 1484 1484 1481 1478 1478 1481 1482 1483 1483 1484 1485 1482 1485 1497 1500 1487 1476 1472 1462 1442 1436 1441 1438 1438 1440 1439 1439 1436 1436 1439 1434 1436 1439 1440 1447 1449 1448 1449 1449 1461 1471 1470 1472 1473 1468 1460 1451 1452 1449 1442 1449 1461 1465 1463 1459 1462 1468 1474 1486 1497 1506 1513 1511 1507 1507 1497 1482 1479 1485 1496 1494 1477 1469 1468 1463 1463 1464 1466 1470 1473 1479 1485 1487 1490 1493 1495
1483 1481 1479 1478 1477 1475 1475 1478 1479 1480 1482 1482 1484 1484 1489 1497 1489 1472 1471 1468 1452 1439 1440 1443 1442 1443 1441 1440 1437 1431 1436 1440 1433 1436 1440 1441 1449 1451 1449 1448 1445 1451 1459 1464 1469 1471 1476 1471 1454 1452 1450 1442 1443 1449 1453 1456 1457 1459 1459 1465 1477 1484 1496 1505 1503 1503 1503 1493 1485 1483 1486 1491 1486 1469 1456 1453 1451 1453 1458 1464 1469 1473 1478 1481 1484 1488 1490 1492
1479 1478 1475 1472 1471 1471 1472 1474 1475 1477 1480 1480 1482 1487 1491 1489 1477 1467 1465 1458 1450 1448 1446 1444 1445 1447 1444 1439 1433 1427 1432 1437 1432 1435 1441 1443 1448 1449 1448 1447 1444 1446 1455 1465 1466 1461 1470 1468 1447 1440 1440 1437 1440 1438 1436 1447 1458 1456 1451 1462 1471 1469 1474 1486 1489 1487 1488 1489 1488 1484 1481 1475 1467 1456 1446 1446 1449 1451 1459 1464 1468 1473 1477 1481 1485 1487 1488 1490
1475 1473 1471 1467 1466 1467 1468 1469 1470 1473 1476 1477 1483 1486 1481 1471 1464 1460 1455 1449 1451 1453 1451 1450 1449 1450 1449 1442 1435 1429 1427 1430 1432 1436 1440 1441 1442 1443 1442 1440 1438 1441 1448 1459 1461 1458 1465 1461 1441 1436 1437 1432 1434 1433 1429 1441 1455 1454 1455 1463 1461 1453 1458 1477 1488 1480 1481 1494 1490 1479 1476 1468 1463 1459 1450 1449 1454 1455 1459 1463 1464 1469 1474 1479 1482 1483 1485 1487
1472 1469 1466 1464 1462 1461 1462 1464 1466 1469 1472 1475 1480 1478 1468 1459 1453 1451 1448 1447 1449 1449 1454 1460 1454 1451 1452 1446 1439 1433 1428 1430 1433 1437 1441 1441 1439 1438 1437 1434 1432 1434 1438 1446 1453 1451 1458 1459 1440 1434 1441 1432 1425 1428 1427 1427 1437 1450 1459 1455 1449 1452 1456 1468 1486 1489 1492 1503 1492 1477 1478 1476 1475 1472 1458 1454 1460 1459 1458 1460 1462 1468 1472 1475 1478 1479 1482 1483
1470 1466 1462 1460 1459 1457 1457 1459 1462 1466 1470 1474 1475 1469 1462 1455 1449 1447 1447 1448 1450 1450 1456 1463 1456 1449 1451 1450 1443 1434 1432 1435 1435 1435 1439 1440 1436 1431 1431 1432 1428 1427 1429 1437 1447 1445 1449 1460 1446 1430 1436 1432 1421 1430 1437 1429 1426 1437 1445 1440 1446 1465 1470 1470 1483 1493 1499 1506 1496 1483 1480 1478 1478 1473 1462 1460 1462 1459 1458 1459 1462 1466 1468 1471 1474 1476 1478 1480
1469 1465 1461 1458 1456 1455 1455 1457 1459 1463 1468 1472 1473 1467 1459 1453 1447 1447 1450 1451 1452 1453 1456 1458 1454 1450 1449 1449 1446 1438 1434 1434 1432 1432 1434 1436 1434 1426 1423 1427 1426 1425 1424 1429 1442 1441 1443 1460 1455 1432 1427 1429 1427 1435 1446 1442 1432 1431 1435 1438 1443 1455 1464 1467 1473 1479 1489 1499 1500 1491 1485 1479 1471 1464 1459 1458 1456 1455 1456 1458 1460 1462 1463 1465 1469 1472 1475 1478
1470 1467 1463 1458 1455 1454 1455 1457 1460 1464 1467 1467 1467 1463 1457 1452 1448 1447 1450 1451 1451 1452 1452 1452 1452 1452 1448 1444 1442 1438 1435 1432 1428 1429 1428 1428 1429 1425 1418 1419 1421 1422 1420 1423 1433 1437 1440 1454 1458 1441 1428 1433 1437 1435 1438 1441 1440 1440 1445 1450 1450 1449 1453 1460 1465 1467 1474 1487 1496 1495 1491 1480 1462 1453 1452 1451 1450 1451 1452 1454 1457 1458 1459 1462 1466 1469 1472 1473
1471 1469 1465 1460 1457 1458 1459 1460 1461 1463 1464 1463 1461 1459 1456 1452 1448 1446 1448 1450 1448 1447 1446 1447 1448 1449 1446 1443 1439 1435 1435 1432 1426 1425 1424 1421 1424 1425 1417 1412 1415 1417 1420 1425 1429 1432 1438 1447 1453 1448 1440 1440 1437 1424 1421 1426 1430 1436 1443 1447 1449 1449 1454 1466 1473 1468 1463 1472 1481 1485 1490 1478 1454 1445 1446 1444 1447 1449 1448 1450 1453 1455 1457 1461 1463 1466 1468 1470
1473 1471 1466 1463 1463 1462 1462 1462 1460 1461 1462 1460 1458 1456 1454 1451 1447 1446 1447 1447 1445 1442 1441 1441 1442 1443 1442 1439 1435 1432 1433 1430 1423 1420 1419 1416 1415 1415 1409 1406 1407 1409 1415 1424 1423 1421 1427 1437 1447 1448 1440 1436 1428 1415 1412 1416 1419 1426 1432 1436 1440 1445 1451 1465 1475 1469 1462 1466 1469 1474 1484 1473 1449 1441 1441 1439 1442 1445 1446 1448 1450 1453 1456 1458 1461 1464 1466 1468
1473 1469 1463 1463 1464 1462 1463 1463 1461 1460 1459 1457 1455 1453 1452 1449 1446 1445 1445 1445 1442 1440 1439 1437 1436 1437 1435 1432 1429 1428 1428 1425 1418 1414 1413 1411 1406 1401 1398 1399 1402 1404 1410 1418 1418 1416 1422 1434 1444 1446 1437 1428 1421 1414 1410 1411 1416 1426 1430 1430 1435 1440 1442 1448 1455 1457 1461 1467 1468 1475 1486 1472 1448 1440 1440 1438 1440 1442 1444 1446 1448 1451 1454 1455 1459 1461 1464 1466
1471 1466 1460 1461 1462 1461 1462 1463 1461 1460 1457 1455 1453 1450 1448 1445 1443 1442 1442 1442 1440 1437 1437 1434 1431 1431 1429 1425 1424 1424 1424 1423 1416 1407 1407 1408 1402 1394 1391 1392 1396 1402 1406 1410 1410 1413 1423 1432 1439 1449 1451 1444 1438 1433 1427 1421 1422 1428 1429 1428 1430 1433 1435 1440 1444 1450 1459 1465 1464 1473 1483 1470 1449 1442 1442 1440 1440 1442 1444 1444 1445 1448 1451 1454 1457 1458 1461 1464
1471 1465 1459 1458 1459 1459 1460 1459 1458 1458 1456 1454 1452 1449 1446 1442 1438 1438 1436 1435 1434 1433 1433 1430 1427 1426 1424 1423 1424 1421 1418 1419 1415 1406 1403 1405 1400 1392 1391 1392 1394 1395 1396 1396 1397 1403 1417 1426 1431 1445 1458 1459 1455 1448 1439 1432 1428 1426 1425 1425 1427 1429 1433 1439 1446 1453 1461 1463 1462 1466 1472 1464 1450 1446 1446 1443 1441 1442 1444 1444 1444 1446 1449 1452 1454 1456 1459 1462
1475 1470 1463 1459 1456 1456 1457 1456 1456 1458 1457 1458 1457 1449 1445 1442 1436 1434 1432 1431 1428 1427 1427 1426 1423 1424 1425 1424 1425 1421 1415 1413 1413 1410 1406 1405 1401 1394 1391 1393 1395 1394 1391 1391 1392 1398 1411 1419 1421 1430 1441 1443 1441 1433 1423 1422 1427 1429 1426 1424 1425 1426 1428 1436 1447 1453 1454 1457 1460 1459 1458 1459 1456 1450 1448 1445 1441 1442 1443 1443 1444 1445 1446 1449 1451 1454 1456 1459
1477 1475 1470 1467 1461 1457 1456 1454 1456 1459 1459 1461 1460 1451 1445 1443 1437 1432 1430 1427 1424 1422 1422 1421 1421 1424 1428 1429 1427 1422 1416 1412 1412 1412 1409 1405 1400 1394 1390 1389 1392 1393 1392 1390 1390 1396 1410 1418 1418 1421 1424 1423 1423 1420 1414 1414 1421 1424 1424 1423 1423 1424 1427 1434 1442 1445 1446 1454 1461 1455 1450 1455 1455 1448 1446 1443 1440 1441 1441 1440 1440 1442 1444 1447 1449 1451 1454 1456
1477 1475 1473 1474 1471 1466 1463 1459 1458 1460 1458 1457 1457 1450 1445 1443 1438 1434 1429 1424 1421 1419 1419 1420 1420 1422 1426 1429 1429 1424 1418 1415 1415 1414 1411 1407 1403 1397 1392 1388 1389 1391 1391 1390 1390 1392 1405 1415 1414 1415 1418 1416 1416 1415 1412 1412 1415 1417 1419 1422 1421 1422 1426 1430 1433 1436 1439 1446 1450 1447 1447 1449 1445 1441 1440 1436 1433 1434 1435 1435 1436 1439 1442 1444 1446 1449 1451 1453
1477 1475 1473 1473 1473 1471 1468 1464 1461 1460 1457 1456 1454 1449 1445 1443 1438 1433 1428 1424 1422 1418 1418 1421 1421 1419 1419 1422 1423 1422 1418 1419 1420 1416 1412 1410 1407 1403 1399 1395 1391 1389 1391 1393 1390 1388 1398 1408 1407 1409 1415 1414 1412 1412 1409 1410 1414 1415 1416 1417 1417 1419 1422 1424 1427 1429 1431 1434 1435 1438 1444 1442 1435 1432 1432 1428 1426 1428 1430 1433 1436 1438 1441 1443 1445 1448 1449 1451
1479 1478 1475 1474 1473 1470 1467 1464 1462 1460 1457 1455 1453 1448 1444 1442 1438 1432 1425 1425 1425 1421 1418 1421 1420 1416 1416 1416 1416 1417 1416 1415 1418 1415 1411 1412 1410 1405 1403 1400 1394 1392 1393 1394 1391 1387 1394 1403 1402 1404 1414 1415 1409 1409 1409 1409 1413 1415 1415 1415 1415 1416 1419 1421 1424 1426 1429 1432 1432 1436 1444 1441 1429 1424 1425 1427 1429 1430 1432 1435 1437 1438 1440 1442 1444 1447 1448 1450
1479 1479 1478 1477 1473 1468 1466 1464 1462 1461 1458 1454 1453 1450 1446 1442 1437 1431 1424 1420 1422 1423 1421 1422 1420 1416 1416 1417 1417 1416 1412 1410 1411 1409 1406 1410 1409 1404 1403 1399 1396 1397 1397 1395 1393 1390 1393 1400 1399 1403 1417 1419 1409 1408 1410 1409 1411 1416 1418 1418 1418 1419 1422 1424 1424 1424 1426 1430 1435 1442 1447 1440 1427 1422 1425 1428 1431 1432 1433 1434 1435 1437 1439 1441 1443 1446 1448 1450
1478 1477 1477 1477 1474 1468 1466 1465 1462 1461 1457 1454 1453 1451 1448 1443 1435 1430 1427 1420 1417 1420 1421 1420 1419 1417 1418 1420 1418 1414 1410 1409 1408 1404 1402 1404 1402 1398 1398 1396 1393 1396 1398 1396 1395 1393 1394 1397 1398 1403 1417 1419 1410 1408 1408 1409 1420 1430 1426 1420 1420 1420 1422 1424 1424 1422 1421 1423 1433 1440 1438 1430 1425 1425 1428 1430 1431 1432 1432 1433 1435 1438 1440 1442 1445 1447 1450 1452